[[{"header":{"parameterUnit":"m.s-1","parameterCategory":1,"la1":30.2991,"la2":30.254,"lo1":-89.0895,"lo2":-89.0444,"dy":0.0017,"dx":0.0017,"nx":28,"ny":28,"refTime":"2023-07-18T21:00:00:Z","depth":0,"parameterNumber":2,"parameterNumberName":"U-component_of_WINDS"},"data":[0,0,0,0,0,0,0,0,0,0,0,0,0,0,0,0,0,0,0,0,0,0,0,0,0,0,0,0,0,0,0,0,0,0,0,0,0,0,0,0,0,0,0,0,0,0,0,0,0,0,0,0,0,0,0,0,0,0,-0.6815,-0.6814,0,-0.6777,-0.6776,-0.6776,-0.6746,-0.6746,-0.6746,-0.6745,-0.6707,-0.6706,-0.6706,0,0,0,0,0,0,0,0,0,0,0,0,0,-0.6864,-0.6863,-0.6815,-0.6814,-0.6814,-0.6777,-0.6776,-0.6776,-0.6746,-0.6746,-0.6746,-0.6745,-0.6707,-0.6706,-0.6705,0,0,0,0,0,0,0,0,0,0,0,0,0,-0.6836,-0.6863,-0.6815,-0.6795,-0.6792,-0.6777,-0.6776,-0.6775,-0.6746,-0.6746,-0.6745,-0.6745,-0.6708,-0.6706,-0.6705,-0.6707,0,0,-0.6702,-0.6701,0,0,0,0,0,0,0,0,-0.6838,-0.6834,-0.6798,-0.6796,-0.6793,-0.6766,-0.6779,-0.6752,-0.6746,-0.6764,-0.6745,-0.6745,-0.6727,-0.6724,-0.6718,-0.6705,-0.6703,-0.6702,-0.6701,-0.6701,-0.67,0,0,0,0,0,0,0,-0.6839,-0.6836,-0.68,-0.6798,-0.6795,-0.6788,-0.6784,-0.6774,-0.6748,-0.6762,-0.676,-0.6756,-0.6726,-0.6719,-0.6717,-0.6703,-0.6702,-0.6701,-0.67,-0.67,-0.6691,-0.6691,0,0,0,0,0,0,-0.6844,-0.6837,-0.6801,-0.6798,-0.6815,-0.6788,-0.6783,-0.6775,-0.6748,-0.6744,-0.6756,-0.6755,-0.6721,-0.6718,-0.6715,-0.6716,-0.6701,-0.67,-0.6699,-0.669,-0.6691,-0.6691,0,0,0,0,0,0,-0.6846,-0.6841,-0.6802,-0.6817,-0.6812,-0.6787,-0.6779,-0.6775,-0.6768,-0.6744,-0.6739,-0.6754,-0.6721,-0.6717,-0.6709,-0.6715,-0.6699,-0.6698,-0.669,-0.669,-0.6691,-0.6718,0,0,0,0,0,0,-0.6847,-0.6842,-0.6842,-0.6818,-0.6811,-0.6797,-0.6779,-0.6774,-0.6766,-0.6764,-0.6741,-0.6736,-0.672,-0.6711,-0.6708,-0.6713,-0.6697,-0.6689,-0.669,-0.6691,-0.6716,-0.6719,-0.6722,0,0,0,0,0,-0.6849,-0.6851,-0.6842,-0.6838,-0.681,-0.6797,-0.6793,-0.6774,-0.6767,-0.6767,-0.6751,-0.6737,-0.6714,-0.6711,-0.6707,-0.6711,-0.6689,-0.669,-0.6691,-0.6715,-0.6719,-0.6722,0,0,0,0,0,0,-0.6876,-0.6847,-0.6837,-0.6831,-0.6817,-0.6792,-0.6791,-0.6779,-0.6766,-0.6765,-0.6742,-0.6737,-0.6732,-0.6721,-0.6717,-0.6712,-0.67,-0.67,-0.672,-0.6723,-0.6725,-0.6729,-0.6696,0,0,0,0,0,-0.6882,-0.6873,-0.6848,-0.6845,-0.6838,-0.6816,-0.681,-0.6796,-0.6781,-0.6775,-0.6759,-0.6744,-0.6734,-0.6728,-0.6717,-0.6715,-0.671,-0.6716,-0.6718,-0.6721,-0.6721,-0.6721,-0.6723,-0.6695,-0.6695,-0.6695,0,0,-0.6893,-0.6876,-0.6871,-0.685,-0.6838,-0.683,-0.6811,-0.6803,-0.6798,-0.6773,-0.6766,-0.6754,-0.6736,-0.6732,-0.6729,-0.6722,-0.6728,-0.6722,-0.6724,-0.6723,-0.6722,-0.6725,-0.6727,-0.6695,-0.6695,-0.6695,0,0,-0.6909,-0.6895,-0.6891,-0.6879,-0.686,-0.6845,-0.6845,-0.6822,-0.6813,-0.6805,-0.6787,-0.678,-0.6762,-0.6751,-0.6743,-0.6756,-0.6743,-0.6753,-0.6768,-0.6767,-0.6769,-0.6771,-0.6777,-0.6779,-0.6754,-0.6754,-0.6754,0,-0.6925,-0.6912,-0.6891,-0.6884,-0.6876,-0.6854,-0.6851,-0.684,-0.6819,-0.6814,-0.6807,-0.6785,-0.6772,-0.6765,-0.6768,-0.6762,-0.6761,-0.6756,-0.6771,-0.6772,-0.6774,-0.6779,-0.6781,-0.6755,-0.6755,-0.6755,-0.6755,0,-0.6933,-0.6924,-0.6924,-0.6904,-0.6895,-0.6891,-0.687,-0.6864,-0.6852,-0.6838,-0.6831,-0.6814,-0.68,-0.6797,-0.6785,-0.6789,-0.6786,-0.6775,-0.6762,-0.6778,-0.6783,-0.6784,-0.6757,-0.6757,-0.6757,-0.6756,0,0,-0.6965,-0.6934,-0.6935,-0.6926,-0.6904,-0.6897,-0.6892,-0.6878,-0.6873,-0.686,-0.6855,-0.6842,-0.6832,-0.6823,-0.6809,-0.6809,-0.6821,-0.6798,-0.6797,-0.6804,-0.6826,-0.6835,-0.6837,-0.6812,-0.6813,-0.6813,-0.6827,0,-0.6978,-0.6967,-0.6949,-0.6944,-0.6936,-0.6915,-0.6911,-0.6897,-0.6885,-0.6877,-0.6863,-0.6854,-0.6841,-0.6836,-0.6834,-0.682,-0.6826,-0.6819,-0.6809,-0.6809,-0.6814,-0.6839,-0.6848,-0.6863,-0.6829,-0.6829,-0.6829,0,-0.6992,-0.698,-0.6974,-0.6953,-0.695,-0.6946,-0.6932,-0.6925,-0.6909,-0.69,-0.6891,-0.6876,-0.687,-0.6859,-0.6851,-0.6847,-0.6842,-0.6834,-0.6834,-0.6833,-0.682,-0.6839,-0.6867,-0.6869,-0.6832,-0.6832,-0.6831,0,-0.7017,-0.6999,-0.6994,-0.6987,-0.6962,-0.696,-0.695,-0.6934,-0.6928,-0.6916,-0.6911,-0.6899,-0.6893,-0.6884,-0.6867,-0.686,-0.6861,-0.6848,-0.6854,-0.6855,-0.6856,-0.6856,-0.6884,-0.6852,-0.6852,-0.6851,-0.6851,0,-0.7035,-0.7032,-0.7005,-0.7002,-0.6999,-0.6978,-0.6976,-0.6964,-0.695,-0.6945,-0.6926,-0.6921,-0.6899,-0.6892,-0.6878,-0.6874,-0.6871,-0.6865,-0.6861,-0.6867,-0.6868,-0.6863,-0.6862,-0.6852,-0.6852,-0.6852,-0.6852,0,-0.7062,-0.7044,-0.7037,-0.7014,-0.7009,-0.7008,-0.6989,-0.6985,-0.6972,-0.6965,-0.6963,-0.6942,-0.6933,-0.6915,-0.69,-0.6891,-0.6891,-0.6884,-0.6896,-0.6894,-0.6902,-0.6902,-0.6928,-0.6931,-0.6897,-0.6897,-0.6897,0,-0.7075,-0.7073,-0.705,-0.7045,-0.7036,-0.7028,-0.7021,-0.7,-0.6994,-0.6977,-0.6976,-0.6965,-0.6956,-0.6943,-0.6926,-0.6916,-0.6909,-0.6919,-0.6908,-0.6914,-0.6911,-0.6911,-0.6912,-0.6922,-0.6923,-0.6923,-0.6923,0,-0.71,-0.7091,-0.7081,-0.7069,-0.7061,-0.705,-0.7038,-0.7036,-0.7013,-0.7007,-0.6997,-0.699,-0.6976,-0.6966,-0.6953,-0.6943,-0.693,-0.6927,-0.6928,-0.6934,-0.6942,-0.6939,-0.6904,-0.6927,-0.6926,-0.6926,-0.6926,-0.6926,-0.7121,-0.7118,-0.7102,-0.7092,-0.7081,-0.7071,-0.7067,-0.7053,-0.7045,-0.7032,-0.702,-0.7012,-0.6998,-0.6979,-0.697,-0.6964,-0.6957,-0.6959,-0.6959,-0.696,-0.6963,-0.6942,-0.6961,-0.6961,-0.6961,-0.6961,-0.6961,0,-0.7145,-0.7134,-0.7125,-0.711,-0.7102,-0.709,-0.7077,-0.7071,-0.7064,-0.7052,-0.7043,-0.7033,-0.7023,-0.7007,-0.6996,-0.6994,-0.6988,-0.6992,-0.6993,-0.6991,-0.6969,-0.6969,-0.6998,-0.6998,-0.6998,-0.6998,-0.6998,-0.6998,-0.7157,-0.7153,-0.7142,-0.7132,-0.7121,-0.7112,-0.7106,-0.7097,-0.7087,-0.7076,-0.7068,-0.7057,-0.7043,-0.7032,-0.7023,-0.7018,-0.7016,-0.7022,-0.7016,-0.6996,-0.6992,-0.6989,-0.6989,-0.7021,-0.7021,-0.7038,-0.7038,-0.7039]},{"header":{"parameterUnit":"m.s-1","parameterCategory":1,"la1":30.2991,"la2":30.254,"lo1":-89.0895,"lo2":-89.0444,"dy":0.0017,"dx":0.0017,"nx":28,"ny":28,"refTime":"2023-07-18T21:00:00:Z","depth":0,"parameterNumber":3,"parameterNumberName":"V-component_of_WINDS"},"data":[0,0,0,0,0,0,0,0,0,0,0,0,0,0,0,0,0,0,0,0,0,0,0,0,0,0,0,0,0,0,0,0,0,0,0,0,0,0,0,0,0,0,0,0,0,0,0,0,0,0,0,0,0,0,0,0,0,0,4.8657,4.8657,0,4.8601,4.8601,4.86,4.8504,4.8502,4.85,4.8498,4.8442,4.8442,4.8443,0,0,0,0,0,0,0,0,0,0,0,0,0,4.8681,4.8682,4.8657,4.8657,4.8656,4.8602,4.8601,4.86,4.8504,4.8502,4.85,4.8498,4.8442,4.8442,4.8443,0,0,0,0,0,0,0,0,0,0,0,0,0,4.8653,4.8682,4.8657,4.8601,4.8596,4.8602,4.8601,4.86,4.8505,4.8502,4.8499,4.8497,4.8442,4.8442,4.8443,4.8499,0,0,4.8443,4.8444,0,0,0,0,0,0,0,0,4.8655,4.8652,4.861,4.8605,4.8599,4.8557,4.8588,4.8566,4.8505,4.8539,4.8498,4.8495,4.8483,4.8479,4.8475,4.8496,4.8494,4.8443,4.8444,4.8444,4.8444,0,0,0,0,0,0,0,4.8657,4.8654,4.8635,4.861,4.8603,4.8579,4.8572,4.8584,4.8527,4.8536,4.8529,4.8524,4.8479,4.8475,4.8473,4.8493,4.8443,4.8444,4.8444,4.8444,4.8557,4.856,0,0,0,0,0,0,4.8667,4.8656,4.8637,4.8633,4.8621,4.8581,4.8573,4.8573,4.8526,4.8517,4.8526,4.8519,4.8476,4.8473,4.847,4.8533,4.8444,4.8444,4.8444,4.8554,4.8558,4.8561,0,0,0,0,0,0,4.8668,4.8666,4.8639,4.8643,4.8638,4.8584,4.8584,4.8573,4.8569,4.8519,4.8508,4.8532,4.8473,4.847,4.8492,4.853,4.8444,4.8444,4.8551,4.8555,4.8559,4.8659,0,0,0,0,0,0,4.8669,4.8667,4.8688,4.8644,4.8638,4.8662,4.8587,4.8574,4.857,4.8561,4.8522,4.8513,4.8471,4.8492,4.8493,4.8529,4.8445,4.8547,4.8553,4.8558,4.8653,4.8667,4.8679,0,0,0,0,0,4.867,4.8718,4.8689,4.8687,4.8662,4.8664,4.8661,4.8612,4.8573,4.8594,4.8561,4.8514,4.8526,4.8496,4.8495,4.8532,4.8545,4.8551,4.8558,4.8647,4.8664,4.8678,0,0,0,0,0,0,4.8768,4.8711,4.8679,4.8714,4.8695,4.8648,4.8672,4.8631,4.8623,4.8614,4.8554,4.8546,4.8576,4.8556,4.8523,4.8584,4.8528,4.8535,4.8596,4.8612,4.8624,4.8629,4.8445,0,0,0,0,0,4.8793,4.8799,4.875,4.8786,4.8778,4.8727,4.8726,4.869,4.8667,4.8659,4.8628,4.8609,4.8608,4.8608,4.8605,4.8649,4.8639,4.8674,4.8687,4.8698,4.8705,4.8727,4.8741,4.8582,4.8582,4.8582,0,0,4.8846,4.8816,4.8824,4.8805,4.8785,4.8793,4.8721,4.8732,4.8738,4.8661,4.868,4.8657,4.8631,4.8665,4.8678,4.8649,4.8746,4.8706,4.8715,4.8716,4.8735,4.875,4.8763,4.8586,4.8585,4.8585,0,0,4.8947,4.8925,4.8952,4.8935,4.8906,4.8872,4.8879,4.8839,4.8821,4.8839,4.8781,4.8787,4.8787,4.877,4.8762,4.8857,4.8814,4.8858,4.8926,4.8948,4.8961,4.8972,4.9006,4.9019,4.8864,4.8865,4.8865,0,4.9017,4.9026,4.8972,4.8987,4.8981,4.8911,4.8939,4.8924,4.8897,4.8894,4.8861,4.886,4.8837,4.8866,4.8889,4.8885,4.8891,4.8862,4.8963,4.8974,4.8983,4.9015,4.9028,4.887,4.887,4.8869,4.8869,0,4.9113,4.9121,4.9146,4.9121,4.9118,4.9139,4.9089,4.9091,4.9055,4.9025,4.9045,4.9015,4.9005,4.9009,4.8974,4.9033,4.9016,4.8974,4.8917,4.9005,4.9034,4.9046,4.8878,4.8876,4.8875,4.8873,0,0,4.9274,4.9219,4.9229,4.9217,4.9181,4.9186,4.9204,4.9194,4.9197,4.9181,4.9195,4.9196,4.9158,4.9149,4.9111,4.9131,4.9208,4.9087,4.9085,4.9111,4.9272,4.9304,4.9319,4.9179,4.9181,4.9183,4.9274,0,4.9368,4.9396,4.9348,4.9387,4.9394,4.9328,4.9344,4.9324,4.9296,4.9297,4.9266,4.9268,4.9217,4.9211,4.9227,4.9196,4.924,4.9188,4.9192,4.9193,4.9201,4.9334,4.9368,4.9456,4.9285,4.9287,4.9289,0,4.9481,4.947,4.951,4.9471,4.9472,4.9488,4.9474,4.9476,4.9452,4.943,4.942,4.9376,4.9391,4.9336,4.9357,4.9323,4.9321,4.9306,4.9308,4.9307,4.9246,4.9337,4.9482,4.9496,4.9306,4.9304,4.9303,0,4.9595,4.959,4.9613,4.9605,4.956,4.9573,4.9555,4.9528,4.9525,4.9513,4.951,4.9501,4.9496,4.9489,4.9444,4.9407,4.947,4.9411,4.9453,4.9454,4.9469,4.9469,4.9617,4.9468,4.9468,4.9467,4.9467,0,4.9705,4.9732,4.9664,4.9679,4.9707,4.9652,4.9682,4.9657,4.9634,4.9643,4.9585,4.9594,4.9533,4.9536,4.95,4.9523,4.9521,4.9504,4.9494,4.951,4.9512,4.9508,4.9501,4.9471,4.947,4.9469,4.9469,0,4.9838,4.9793,4.9814,4.977,4.976,4.9783,4.9745,4.9757,4.9725,4.9737,4.9737,4.9687,4.9688,4.9641,4.9632,4.9608,4.9646,4.9625,4.9655,4.9648,4.9693,4.969,4.9844,4.9862,4.9702,4.9703,4.9704,0,4.9911,4.993,4.9889,4.989,4.9875,4.9878,4.9875,4.9821,4.9819,4.9793,4.9808,4.9804,4.9798,4.9801,4.9765,4.9757,4.9736,4.9791,4.9735,4.9749,4.9737,4.9737,4.9739,4.9803,4.9805,4.9806,4.9808,0,5.0046,5.0023,5.002,5.0009,5.0007,4.9996,4.9981,4.9986,4.9927,4.9928,4.9928,4.9923,4.9914,4.991,4.9896,4.9877,4.9833,4.9826,4.9835,4.9851,4.9868,4.986,4.9688,4.9823,4.9821,4.982,4.9819,4.9819,5.0151,5.0166,5.0139,5.0137,5.012,5.0108,5.0117,5.0086,5.0085,5.0073,5.0041,5.0047,5.0021,4.9998,4.9983,4.9987,4.9959,4.9973,4.9976,4.9981,4.999,4.9867,4.9984,4.9983,4.9983,4.9982,4.9982,0,5.0284,5.0263,5.0262,5.0244,5.0243,5.0201,5.0182,5.0184,5.019,5.017,5.0165,5.0165,5.0161,5.0124,5.0116,5.0126,5.0105,5.0125,5.0124,5.0121,5.0014,5.0007,5.0142,5.0142,5.0142,5.0142,5.0142,5.0142,5.0353,5.0375,5.0349,5.0362,5.0341,5.0346,5.0339,5.0327,5.0311,5.0314,5.031,5.0286,5.0259,5.0249,5.0244,5.0233,5.0233,5.026,5.0243,5.0144,5.0128,5.0114,5.0107,5.026,5.0261,5.0349,5.035,5.035]}]]